DW3383 Weather Reports


time (UTC)temp
C
wind
direction
speed
KPH
gust
KPH
rain 1hr
cm
rain 24hr
cm
rain mn
cm
humidity
%
barometer
mb
20260505100807 10 298 4.8 12.9 0.00 0.00 0.00 62 1006.4
20260505100306 10 338 6.4 12.9 0.00 0.00 0.00 62 1006.4
20260505090807 11 35 4.8 9.7 0.00 0.00 0.00 61 1006.7
20260505090307 11 10 3.2 12.9 0.00 0.00 0.00 60 1006.8
20260505080806 10 355 4.8 14.5 0.00 0.00 0.00 61 1007.4
20260505080306 10 275 4.8 14.5 0.00 0.00 0.00 62 1007.5
20260505070308 11 328 4.8 11.3 0.00 0.00 0.00 62 1008.7
20260505060805 11 324 3.2 11.3 0.00 0.00 0.00 61 1009.1
20260505060306 11 332 3.2 11.3 0.00 0.00 0.00 61 1009.1
20260505050805 12 156 1.6 4.8 0.00 0.00 0.00 59 1009.7
20260505040805 13 13 0.0 3.2 0.00 0.00 0.00 56 1010.1
20260505040306 14 354 0.0 8.0 0.00 0.00 0.00 55 1010.1
20260505030806 15 29 0.0 3.2 0.00 0.00 0.00 53 1010.4
20260505030305 15 23 1.6 9.7 0.00 0.00 0.00 52 1010.3
20260505020807 16 75 1.6 4.8 0.00 0.00 0.00 51 1011.1
20260505010806 17 99 3.2 11.3 0.00 0.00 0.00 50 1011.6
20260505000805 17 81 3.2 8.0 0.00 0.00 0.00 49 1012.6
20260505000305 17 77 4.8 14.5 0.00 0.00 0.00 49 1012.7
20260504230805 17 36 3.2 11.3 0.00 0.00 0.00 49 1013.4
20260504230305 17 67 3.2 14.5 0.00 0.00 0.00 50 1013.4
20260504220806 16 39 3.2 8.0 0.00 0.00 0.00 50 1014.4
20260504220306 16 30 3.2 12.9 0.00 0.00 0.00 52 1014.5
20260504210805 15 316 1.6 8.0 0.00 0.00 0.00 54 1015.4
20260504210306 15 41 3.2 9.7 0.00 0.00 0.00 54 1015.4
20260504200805 13 308 1.6 3.2 0.00 0.00 0.00 55 1015.9
20260504200307 13 15 1.6 11.3 0.00 0.00 0.00 55 1016.0
20260504190308 11 69 1.6 12.9 0.00 0.00 0.00 59 1016.6
20260504180305 10 312 4.8 14.5 0.00 0.00 0.00 63 1017.1
20260504170805 8 292 4.8 9.7 0.00 0.00 0.00 69 1017.8
20260504170307 7 287 3.2 9.7 0.00 0.00 0.00 69 1017.8
20260504160306 5 290 8.0 14.5 0.00 0.00 0.00 77 1018.2
20260504150805 3 280 4.8 9.7 0.00 0.00 0.00 83 1018.3
20260504150306 3 282 4.8 11.3 0.00 0.00 0.00 84 1018.4
20260504140805 -1 288 3.2 4.8 0.00 0.00 0.00 96 1018.6
20260504140306 -1 285 3.2 8.0 0.00 0.00 0.00 95 1018.5
20260504130806 0 274 3.2 8.0 0.00 0.00 0.00 92 1018.4
20260504130306 0 288 3.2 9.7 0.00 0.00 0.00 91 1018.4
20260504120307 1 81 3.2 9.7 0.00 0.00 0.00 87 1018.6
20260504110306 3 284 6.4 9.7 0.00 0.00 0.00 85 1018.4